Location: Altenhof
(50.2418°N, 10.8789°E)
Time: 04:32:49
(UTC+00:00)

ATLAS CENTAUR R/B - Pass Details

Date: 18 February 2020
Orbit: 466 x 681 km, 64.7° (Epoch: 28 March)

Event Time Altitude Azimuth Distance (km) Brightness Sun altitude
Exits shadow 05:22:29 14° 283° (WNW) 1,766 3.2 -10.3°
Maximum altitude 05:25:19 24° 329° (NNW) 1,297 2.9 -9.9°
Drops below altitude 10° 05:28:51 10° 24° (NNE) 1,922 4.3 -9.3°
Sets 05:31:24 0° 39° (NE) 2,781 5.4 -8.9°
